Location: Zagreb
(45.8000°N, 16.0000°E)
Time: 20:05:26
(UTC+01:00)

DX 1 - Pass Details

Date: 07 November 2020
Orbit: 619 x 630 km, 98.5° (Epoch: 01 December)

Event Time Altitude Azimuth Distance (km) Brightness Sun altitude
Rises 05:13:15 0° 160° (SSE) 2,883 ? -16.2°
Reaches altitude 10° 05:15:26 10° 158° (SSE) 1,981 ? -15.9°
Maximum altitude 05:19:44 75° 74° (ENE) 647 ? -15.1°
Drops below altitude 10° 05:24:03 10° 349° (N) 1,997 ? -14.4°
Sets 05:26:15 0° 348° (NNW) 2,908 ? -14.0°
